Date String (YYYY-MM-DD hh:mm:ss) UTC,Instrument flags,Ambient pressure (hPa),Sample flow (lpm),Bypass flow (lpm),Sample temperature (°C),Ambient temperature (°C),ASC tube jacket temperature (°C),LED temperature (°C),Box temperature (°C),Sample RH (%),Span deviation,Mass concentration (μg/m³),Mass concentration (μg/m³),Mass concentration (μg/m³)
DateTimeUTC,F1_M11,P_M11,Q1_M11,Q2_M11,T1_M11,T2_M11,T3_M11,T4_M11,T5_M11,U1_M11,ZSPAN_M11,X0_M11,X2_M11,X1_M11
2023-04-30 15:00:00,,0832.3,5.01,0.00,25.6,24.3,00.0,33.9,27.3,18.4,0000.0,0013.98,0004.93,0003.48
2023-04-30 15:01:00,,0832.0,5.01,0.00,25.6,24.3,00.0,33.9,27.3,18.5,0000.0,0013.52,0004.92,0003.48
2023-04-30 15:02:00,,0831.7,4.99,0.00,25.6,24.3,00.0,33.9,27.3,18.4,0000.0,0012.82,0004.96,0003.50
2023-04-30 15:03:00,,0831.7,4.99,0.00,25.7,24.4,00.0,33.9,27.3,18.3,0000.0,0012.94,0004.97,0003.49
2023-04-30 15:04:00,,0831.8,5.00,0.00,25.7,24.4,00.0,33.9,27.3,18.0,0000.0,0012.89,0004.96,0003.48
2023-04-30 15:05:00,,0831.7,5.01,0.00,25.7,24.4,00.0,33.9,27.3,18.1,0000.0,0012.69,0004.89,0003.46
2023-04-30 15:06:00,,0831.7,5.01,0.00,25.7,24.4,00.0,33.9,27.4,17.7,0000.0,0012.03,0004.89,0003.47
2023-04-30 15:07:00,,0831.7,5.00,0.00,25.7,24.4,00.0,33.9,27.4,17.5,0000.0,0011.34,0004.89,0003.46
2023-04-30 15:08:00,,0831.7,4.98,0.00,25.7,24.4,00.0,34.0,27.4,17.3,0000.0,0011.49,0004.90,0003.44
2023-04-30 15:09:00,,0831.7,5.00,0.00,25.7,24.4,00.0,34.0,27.4,17.6,0000.0,0011.45,0004.88,0003.44
2023-04-30 15:10:00,,0831.7,5.00,0.00,25.8,24.4,00.0,34.0,27.4,17.7,0000.0,0011.36,0004.87,0003.45
2023-04-30 15:11:00,,0831.7,5.00,0.00,25.8,24.5,00.0,34.0,27.4,17.6,0000.0,0011.91,0004.83,0003.45
2023-04-30 15:12:00,,0831.7,5.00,0.00,25.8,24.5,00.0,34.0,27.4,17.8,0000.0,0011.98,0004.83,0003.45
2023-04-30 15:13:00,,0831.7,4.98,0.00,25.8,24.5,00.0,34.0,27.4,17.9,0000.0,0012.59,0004.81,0003.44
2023-04-30 15:14:00,,0831.7,5.00,0.00,25.8,24.5,00.0,34.0,27.4,18.2,0000.0,0012.46,0004.76,0003.45
2023-04-30 15:15:00,,0831.7,5.00,0.00,25.8,24.5,00.0,34.0,27.4,18.0,0000.0,0013.12,0004.75,0003.45
2023-04-30 15:16:00,,0831.7,5.01,0.00,25.8,24.5,00.0,34.1,27.5,17.9,0000.0,0013.44,0004.75,0003.46
2023-04-30 15:17:00,,0831.7,5.00,0.00,25.8,24.5,00.0,34.1,27.5,17.6,0000.0,0013.56,0004.82,0003.48
2023-04-30 15:18:00,,0831.6,4.99,0.00,25.9,24.5,00.0,34.1,27.5,17.5,0000.0,0013.51,0004.82,0003.49
2023-04-30 15:19:00,,0831.7,5.02,0.00,25.9,24.6,00.0,34.1,27.5,17.6,0000.0,0013.13,0004.80,0003.50
2023-04-30 15:20:00,,0831.7,5.00,0.00,25.9,24.6,00.0,34.1,27.5,17.6,0000.0,0012.83,0004.85,0003.51
2023-04-30 15:21:00,,0831.6,4.98,0.00,25.9,24.6,00.0,34.1,27.5,17.5,0000.0,0012.75,0004.88,0003.50
2023-04-30 15:22:00,,0831.6,5.01,0.00,25.9,24.6,00.0,34.1,27.5,17.7,0000.0,0012.26,0004.88,0003.50
2023-04-30 15:23:00,,0831.7,5.01,0.00,25.9,24.6,00.0,34.2,27.6,17.5,0000.0,0012.27,0004.91,0003.50
2023-04-30 15:24:00,,0831.7,4.99,0.00,25.9,24.6,00.0,34.2,27.6,17.3,0000.0,0012.01,0004.91,0003.51
2023-04-30 15:25:00,,0831.7,5.00,0.00,25.9,24.6,00.0,34.2,27.6,17.2,0000.0,0011.86,0004.95,0003.51
2023-04-30 15:26:00,,0831.7,5.01,0.00,26.0,24.7,00.0,34.2,27.6,17.0,0000.0,0011.60,0004.97,0003.52
2023-04-30 15:27:00,,0831.6,5.00,0.00,26.0,24.7,00.0,34.2,27.6,17.1,0000.0,0010.95,0004.98,0003.53
2023-04-30 15:28:00,,0831.6,5.00,0.00,26.0,24.7,00.0,34.2,27.6,17.2,0000.0,0010.77,0004.91,0003.53
2023-04-30 15:29:00,,0831.6,4.99,0.00,26.0,24.7,00.0,34.2,27.6,17.3,0000.0,0010.70,0004.88,0003.52
2023-04-30 15:30:00,,0831.6,5.00,0.00,26.0,24.7,00.0,34.2,27.6,17.5,0000.0,0010.66,0004.88,0003.52
2023-04-30 15:31:00,,0831.6,5.01,0.00,26.0,24.7,00.0,34.3,27.6,17.3,0000.0,0010.63,0004.87,0003.52
2023-04-30 15:32:00,,0831.6,5.01,0.00,26.0,24.7,00.0,34.3,27.7,17.8,0000.0,0010.69,0004.84,0003.53
2023-04-30 15:33:00,,0831.6,4.99,0.00,26.0,24.8,00.0,34.3,27.7,17.1,0000.0,0010.64,0004.84,0003.54
2023-04-30 15:34:00,,0831.6,4.99,0.00,26.1,24.8,00.0,34.3,27.7,17.1,0000.0,0010.44,0004.84,0003.55
2023-04-30 15:35:00,,0831.7,5.01,0.00,26.1,24.8,00.0,34.3,27.7,17.7,0000.0,0010.24,0004.76,0003.55
2023-04-30 15:36:00,,0831.7,5.01,0.00,26.1,24.8,00.0,34.3,27.7,17.3,0000.0,0010.50,0004.76,0003.55
2023-04-30 15:37:00,,0831.7,5.00,0.00,26.1,24.8,00.0,34.3,27.7,17.7,0000.0,0011.45,0004.73,0003.56
2023-04-30 15:38:00,,0831.7,4.99,0.00,26.1,24.8,00.0,34.4,27.7,17.7,0000.0,0012.03,0004.71,0003.57
2023-04-30 15:39:00,,0831.7,5.00,0.00,26.1,24.9,00.0,34.4,27.7,17.7,0000.0,0013.06,0004.75,0003.58
2023-04-30 15:40:00,,0831.7,5.00,0.00,26.2,24.9,00.0,34.4,27.7,17.3,0000.0,0013.30,0004.79,0003.61
2023-04-30 15:41:00,,0831.7,5.01,0.00,26.2,24.9,00.0,34.4,27.8,17.4,0000.0,0013.40,0004.79,0003.62
2023-04-30 15:42:00,,0831.7,4.99,0.00,26.2,24.9,00.0,34.4,27.8,17.6,0000.0,0013.89,0004.77,0003.62
2023-04-30 15:43:00,,0831.7,4.99,0.00,26.2,24.9,00.0,34.4,27.8,17.4,0000.0,0014.42,0004.77,0003.63
2023-04-30 15:44:00,,0831.7,5.01,0.00,26.2,24.9,00.0,34.4,27.8,17.5,0000.0,0014.61,0004.84,0003.65
2023-04-30 15:45:00,,0831.6,5.00,0.00,26.2,24.9,00.0,34.4,27.8,17.5,0000.0,0014.78,0004.89,0003.66
2023-04-30 15:46:00,,0831.7,4.99,0.00,26.2,24.9,00.0,34.5,27.8,17.2,0000.0,0015.18,0005.02,0003.68
2023-04-30 15:47:00,,0831.7,5.01,0.00,26.3,25.0,00.0,34.5,27.8,17.0,0000.0,0015.03,0005.08,0003.70
2023-04-30 15:48:00,,0831.7,5.00,0.00,26.3,25.0,00.0,34.5,27.9,16.8,0000.0,0014.27,0005.11,0003.69
2023-04-30 15:49:00,,0831.7,4.99,0.00,26.3,25.0,00.0,34.5,27.9,17.0,0000.0,0013.87,0005.14,0003.68
2023-04-30 15:50:00,,0831.7,4.99,0.00,26.3,25.0,00.0,34.5,27.9,16.9,0000.0,0013.82,0005.15,0003.68
2023-04-30 15:51:00,,0831.7,5.01,0.00,26.3,25.0,00.0,34.5,27.9,16.8,0000.0,0013.88,0005.11,0003.67
2023-04-30 15:52:00,,0831.7,5.00,0.00,26.3,25.0,00.0,34.5,27.9,17.0,0000.0,0014.00,0005.10,0003.68
2023-04-30 15:53:00,,0831.6,5.01,0.00,26.3,25.1,00.0,34.6,27.9,17.0,0000.0,0013.74,0005.16,0003.69
2023-04-30 15:54:00,,0831.7,5.00,0.00,26.3,25.1,00.0,34.6,28.0,16.8,0000.0,0013.11,0005.23,0003.70
2023-04-30 15:55:00,,0831.7,4.99,0.00,26.4,25.1,00.0,34.6,27.9,16.8,0000.0,0013.07,0005.23,0003.71
2023-04-30 15:56:00,,0831.7,5.01,0.00,26.4,25.1,00.0,34.6,28.0,16.7,0000.0,0013.38,0005.15,0003.70
2023-04-30 15:57:00,,0831.7,5.01,0.00,26.4,25.1,00.0,34.6,28.0,16.9,0000.0,0012.90,0005.10,0003.70
2023-04-30 15:58:00,,0831.7,4.99,0.00,26.4,25.1,00.0,34.6,28.0,17.2,0000.0,0013.50,0005.04,0003.70
2023-04-30 15:59:00,,0831.7,5.00,0.00,26.4,25.1,00.0,34.6,28.1,17.0,0000.0,0013.52,0004.99,0003.70
